Hourly Data Report for July 01, 2021

SANIRAJAK AIRPORT
NUNAVUT
Current Station Operator: NAVCAN

68°46'33.000" N
81°14'33.000" W
9.10 m
2402354
71293
YUX

Download Data

Hourly Data (July 2021)
Hourly Data Report for July 1, 2021
TIME
LST
Temp Definition
°C
Dew Point Definition
°C
Rel Hum Definition
%
Precip. Amount Definition
mm

Wind Dir Definition
10's deg

Wind Spd Definition
km/h
Visibility Definition
km
Stn Press Definition
kPa
Hmdx Definition


Wind Chill Definition


Weather Definition


00:00 5.5 4.8 95 0.0 30 24 16.1 100.69     LegendNANA
01:00 5.0 4.5 97 0.0 31 39 16.1 100.76     LegendNANA
02:00 4.4 3.8 96 0.0 32 26 16.1 100.81     LegendNANA
03:00 4.3 3.7 96 0.0 32 28 16.1 100.87     LegendNANA
04:00 4.4 3.7 95 0.0 31 34 16.1 100.91     LegendNANA
05:00 4.2 3.6 96 0.0 32 34 16.1 100.95     LegendNANA
06:00 5.0 3.8 92 0.0 31 28 16.1 100.96     LegendNANA
07:00 6.0 4.0 87 0.0 33 32 16.1 100.96     LegendNANA
08:00 6.6 4.0 83 0.0 31 28 16.1 100.98     LegendNANA
09:00 7.0 3.6 79 0.0 34 24 16.1 101.01     LegendNANA
10:00 7.9 4.1 77 0.0 33 28 16.1 101.02     LegendNANA
11:00 7.5 2.6 71 0.0 3 13 14.5 101.06     LegendNANA
12:00 8.2 4.2 76 0.0 33 18 16.1 101.07     LegendNANA
13:00 7.8 3.4 74 0.0 35 9 16.1 101.05     LegendNANA
14:00 10.3 4.7 68 0.0 31 26 16.1 101.04     LegendNANA
15:00 9.9 3.6 65 0.0 31 28 16.1 101.07     LegendNANA
16:00 10.2 3.4 63 0.0 32 28 16.1 101.11     LegendNANA
17:00 10.0 4.4 68 0.0 31 26 16.1 101.11     LegendNANA
18:00 7.6 2.9 72 0.0 2 15 16.1 101.09     LegendNANA
19:00 5.1 1.3 76 0.0 8 9 14.5 101.12     LegendNANA
20:00 5.2 1.6 78 0.0 16 9 12.9 101.14     LegendNANA
21:00 6.1 1.7 73 0.0 20 5 16.1 101.17     LegendNANA
22:00 6.4 3.2 80 0.0 25 4 16.1 101.16     LegendNANA
23:00 5.5 3.2 85 0.0 18 4 16.1 101.18     LegendNANA

Notes on Data Quality.

Legend

  • E = Estimated
  • M = Missing
  • NA = Not Available*
  • [empty] = Indicates an unobserved value
Date modified: